Regional Weather Roundup
Issued by NWS

Home | Current Version | Previous Version | Text Only | Print | Product List | Glossary On
Versions: 1 2 3 4 5 6 7 8 9 10 11 12 13 14 15 16 17 18 19 20 21 22 23 24 25 26 27 28 29 30 31 32 33 34 35 36 37 38 39 40 41 42 43 44 45 46 47 48 49 50
000
ASUS42 KKEY 302110
RWRKEY

FLORIDA REGIONAL WEATHER ROUNDUP FOR THE FLORIDA KEYS
NATIONAL WEATHER SERVICE KEY WEST FLORIDA
400 PM EST FRI JAN 30 2015

...SOUTH FLORIDA AND THE KEYS...

CITY           SKY/WX    TMP DP  RH WIND       PRES   REMARKS
FORT MYERS     SUNNY     72  55  55 NW9       30.14S
SW REGIONAL AP SUNNY     71  54  54 W7        30.14S
NAPLES         MOSUNNY   69  56  62 NW10      30.14F
MIAMI          PTSUNNY   74  46  36 NW7       30.12F
WEST KENDALL   SUNNY     76  48  37 N7        30.12F
HOMESTEAD      SUNNY     75  50  41 NE6       30.12S
MARATHON       SUNNY     69  56  62 NW9       30.14S
BOCA CHICA NAS MOSUNNY   71  53  52 N14       30.15F
KEY WEST INTL  SUNNY     71  56  58 N10       30.15F

...INTERNATIONAL WEATHER...

CITY           SKY/WX    TMP DP  RH WIND       PRES   REMARKS
NASSAU BAHAMAS MOSUNNY   72  59  64 N7        30.13R
CANCUN MEXICO  MOSUNNY   77  63  61 E12       30.11F
COZUMEL MEXICO MOSUNNY   73  63  68 NE14      30.11F

ADJACENT COASTAL WATERS...

STATION/POSITION TIME  SKY/WX   TEMP    WIND        PRES    WAVE
                                AIR SEA DIR/SP/G            HT/PER
                 (UTC)          (F)     (DEG/KT/KT) (MB)    (FT/S)
PULASKI SHOAL LI NOT AVBL
SAND KEY         NOT AVBL
SOMBRERO KEY     NOT AVBL
LONG KEY         NOT AVBL
MOLASSES REEF    NOT AVBL
FOWEY ROCKS      NOT AVBL
Buoy 42080       NOT AVBL

$$


USA.gov is the U.S. government's official web portal to all federal, state and local government web resources and services.